DeLand, FL

1:10 PM EST on December 15, 2019 (GMT -0500)
De Land Municipal-Taylor

Weather History for KDED - November, 2019

Change the Weather History Date:

Thursday, November 14, 2019

  Actual Average Record
Temperature  
Mean Temperature 67 °F -  
Max Temperature 77 °F 77 °F 82 °F (2018)
Min Temperature 57 °F 50 °F 50 °F (2014)
Cooling Degree Days 2    
Growing Degree Days 17 (Base 50)    
Moisture  
Dew Point 62 °F    
Average Humidity 85    
Maximum Humidity 100    
Minimum Humidity 61    
Precipitation  
Precipitation 0.01 in - - ()
Sea Level Pressure  
Sea Level Pressure 30.10 in    
Wind  
Wind Speed 4 mph (NNE)    
Max Wind Speed 10 mph    
Max Gust Speed -    
Visibility 10 miles    
Events Rain    
Averages and records for this station are not official NWS values.
T = Trace of Precipitation, MM = Missing Value Source: NWS Daily Summary

Daily Weather History Graph

Daily Weather History Graph

Search for Another Location

Airport or City:

Astronomy

Nov. 14, 2019 Rise Set
Actual Time 6:47 AM EST 5:31 PM EST
Civil Twilight 6:22 AM EST 5:56 PM EST
Nautical Twilight 5:53 AM EST 6:24 PM EST
Astronomical Twilight 5:25 AM EST 6:52 PM EST
Moon 7:21 PM EST (11/14) 8:36 AM EST (11/14)
Length of Visible Light 11h 33m
Length of Day
10h 43m
Waning Gibbous, 95% of the Moon is Illuminated
Nov 14
Waning Gibbous
Nov 19
Last Quarter
Nov 26
New
Dec 4
First Quarter
Dec 12
Full

Hourly Weather History & Observations

Time (EST) Temp. Dew Point Humidity Pressure Visibility Wind Dir Wind Speed Gust Speed Precip Events Conditions
12:15 AM 59.0 °F 55.4 °F 88% 30.12 in 10.0 mi North 5.8 mph - N/A   Scattered Clouds
12:35 AM 59.0 °F 55.4 °F 88% 30.12 in 10.0 mi Calm Calm - N/A   Mostly Cloudy
1:15 AM 59.0 °F 55.4 °F 88% 30.11 in 10.0 mi Calm Calm - N/A   Scattered Clouds
1:35 AM 59.0 °F 55.4 °F 88% 30.12 in 10.0 mi Calm Calm - N/A   Scattered Clouds
1:55 AM 57.2 °F 55.4 °F 94% 30.11 in 10.0 mi Calm Calm - N/A   Scattered Clouds
2:15 AM 57.2 °F 55.4 °F 94% 30.10 in 10.0 mi Calm Calm - N/A   Clear
2:35 AM 57.2 °F 55.4 °F 94% 30.10 in 10.0 mi NNW 3.5 mph - N/A   Scattered Clouds
2:55 AM 57.2 °F 55.4 °F 94% 30.10 in 10.0 mi Calm Calm - N/A   Scattered Clouds
3:15 AM 57.2 °F 55.4 °F 94% 30.10 in 10.0 mi Calm Calm - N/A   Scattered Clouds
3:35 AM 57.2 °F 55.4 °F 94% 30.10 in 10.0 mi Calm Calm - N/A   Mostly Cloudy
4:15 AM 59.0 °F 57.2 °F 94% 30.10 in 10.0 mi NW 3.5 mph - N/A   Clear
4:35 AM 57.2 °F 55.4 °F 94% 30.10 in 10.0 mi Calm Calm - N/A   Clear
4:55 AM 59.0 °F 57.2 °F 94% 30.10 in 10.0 mi NW 5.8 mph - N/A   Clear
5:15 AM 59.0 °F 55.4 °F 88% 30.11 in 10.0 mi NW 4.6 mph - N/A   Mostly Cloudy
5:35 AM 59.0 °F 55.4 °F 88% 30.11 in 10.0 mi Calm Calm - N/A   Mostly Cloudy
5:55 AM 59.0 °F 57.2 °F 94% 30.12 in 10.0 mi NNW 5.8 mph - N/A   Mostly Cloudy
6:15 AM 59.0 °F 57.2 °F 94% 30.13 in 10.0 mi NNW 6.9 mph - N/A   Mostly Cloudy
6:35 AM 59.0 °F 57.2 °F 94% 30.13 in 10.0 mi NNW 8.1 mph - N/A   Mostly Cloudy
6:55 AM 60.8 °F 59.0 °F 94% 30.14 in 10.0 mi North 9.2 mph - N/A   Overcast
7:15 AM 60.8 °F 60.8 °F 100% 30.14 in 10.0 mi North 9.2 mph - N/A   Scattered Clouds
7:35 AM 62.6 °F 62.6 °F 100% 30.14 in 10.0 mi North 8.1 mph - N/A   Scattered Clouds
7:55 AM 64.4 °F 62.6 °F 94% 30.14 in 10.0 mi North 8.1 mph - N/A   Overcast
8:15 AM 64.4 °F 64.4 °F 100% 30.15 in 10.0 mi North 9.2 mph - N/A   Overcast
8:35 AM 64.4 °F 64.4 °F 100% 30.15 in 10.0 mi North 9.2 mph - N/A   Overcast
8:55 AM 66.2 °F 64.4 °F 94% 30.15 in 10.0 mi North 9.2 mph - N/A   Overcast
9:15 AM 66.2 °F 64.4 °F 94% 30.16 in 10.0 mi North 9.2 mph - N/A   Overcast
9:35 AM 68.0 °F 64.4 °F 88% 30.16 in 10.0 mi North 6.9 mph - N/A   Overcast
9:55 AM 69.8 °F 64.4 °F 83% 30.16 in 10.0 mi North 5.8 mph - N/A   Overcast
10:15 AM 69.8 °F 64.4 °F 83% 30.15 in 10.0 mi North 5.8 mph - N/A   Overcast
10:35 AM 71.6 °F 64.4 °F 78% 30.14 in 10.0 mi NNE 4.6 mph - N/A   Mostly Cloudy
10:55 AM 73.4 °F 64.4 °F 73% 30.14 in 10.0 mi NNE 4.6 mph - N/A   Mostly Cloudy
11:15 AM 75.2 °F 64.4 °F 69% 30.13 in 10.0 mi NE 5.8 mph - N/A   Scattered Clouds
11:35 AM 77.0 °F 64.4 °F 65% 30.12 in 10.0 mi ENE 8.1 mph - N/A   Scattered Clouds
11:55 AM 77.0 °F 64.4 °F 65% 30.11 in 10.0 mi East 6.9 mph - N/A   Mostly Cloudy
12:15 PM 75.2 °F 64.4 °F 69% 30.12 in 10.0 mi East 10.4 mph - N/A   Mostly Cloudy
12:35 PM 77.0 °F 64.4 °F 65% 30.11 in 10.0 mi ESE 5.8 mph - N/A   Overcast
12:55 PM 77.0 °F 64.4 °F 65% 30.10 in 10.0 mi ESE 6.9 mph - N/A   Mostly Cloudy
1:15 PM 77.0 °F 64.4 °F 65% 30.09 in 10.0 mi East 8.1 mph - N/A   Scattered Clouds
1:35 PM 77.0 °F 62.6 °F 61% 30.09 in 10.0 mi East 6.9 mph - N/A   Mostly Cloudy
1:55 PM 77.0 °F 64.4 °F 65% 30.08 in 10.0 mi East 6.9 mph - N/A   Overcast
2:15 PM 75.2 °F 64.4 °F 69% 30.07 in 10.0 mi ENE 8.1 mph - N/A   Overcast
2:35 PM 75.2 °F 66.2 °F 73% 30.07 in 10.0 mi ENE 8.1 mph - N/A   Overcast
2:55 PM 75.2 °F 66.2 °F 73% 30.06 in 10.0 mi East 10.4 mph - N/A   Scattered Clouds
3:15 PM 75.2 °F 66.2 °F 73% 30.06 in 10.0 mi ESE 10.4 mph - N/A   Scattered Clouds
3:35 PM 75.2 °F 66.2 °F 73% 30.06 in 10.0 mi East 6.9 mph - N/A   Mostly Cloudy
3:55 PM 73.4 °F 66.2 °F 78% 30.07 in 10.0 mi NE 4.6 mph - N/A   Overcast
4:15 PM 73.4 °F 66.2 °F 78% 30.05 in 10.0 mi NE 6.9 mph - N/A   Overcast
4:35 PM 73.4 °F 66.2 °F 78% 30.06 in 10.0 mi NE 5.8 mph - N/A   Overcast
4:55 PM 73.4 °F 66.2 °F 78% 30.06 in 10.0 mi ENE 4.6 mph - N/A   Mostly Cloudy
5:15 PM 71.6 °F 66.2 °F 83% 30.06 in 10.0 mi ENE 4.6 mph - N/A   Mostly Cloudy
5:35 PM 71.6 °F 66.2 °F 83% 30.07 in 10.0 mi NNE 4.6 mph - N/A   Overcast
5:55 PM 71.6 °F 66.2 °F 83% 30.06 in 10.0 mi NNE 5.8 mph - N/A   Overcast
6:15 PM 71.6 °F 66.2 °F 83% 30.07 in 10.0 mi NNE 4.6 mph - N/A   Mostly Cloudy
6:35 PM 71.6 °F 66.2 °F 83% 30.08 in 10.0 mi ENE 3.5 mph - N/A   Mostly Cloudy
6:55 PM 69.8 °F 66.2 °F 88% 30.07 in 10.0 mi North 4.6 mph - N/A   Scattered Clouds
7:15 PM 69.8 °F 66.2 °F 88% 30.08 in 10.0 mi North 9.2 mph - N/A   Scattered Clouds
7:35 PM 69.8 °F 68.0 °F 94% 30.08 in 10.0 mi North 8.1 mph - N/A   Mostly Cloudy
7:55 PM 68.0 °F 68.0 °F 100% 30.08 in 10.0 mi North 3.5 mph - N/A   Mostly Cloudy
8:35 PM 68.0 °F 68.0 °F 100% 30.07 in 10.0 mi NNE 5.8 mph - N/A   Scattered Clouds
8:55 PM 68.0 °F 68.0 °F 100% 30.07 in 10.0 mi NNE 5.8 mph - N/A   Mostly Cloudy
9:15 PM 68.0 °F 68.0 °F 100% 30.07 in 10.0 mi North 3.5 mph - N/A   Overcast
9:35 PM 68.0 °F 68.0 °F 100% 30.07 in 5.0 mi East 4.6 mph - N/A Rain Light Rain
9:55 PM 68.0 °F - N/A% 30.07 in 7.0 mi Calm Calm - N/A Rain Light Rain
10:15 PM 68.0 °F - N/A% 30.06 in 7.0 mi NNE 3.5 mph - N/A Rain Light Rain
10:35 PM 68.0 °F - N/A% 30.06 in 5.0 mi NE 3.5 mph - 0.01 in   Haze
10:55 PM 68.0 °F - N/A% 30.04 in 5.0 mi Calm Calm - 0.01 in Rain Light Rain
11:15 PM 68.0 °F - N/A% 30.02 in 5.0 mi East 5.8 mph - N/A   Haze
11:35 PM 68.0 °F - N/A% 30.01 in 10.0 mi East 4.6 mph - N/A   Clear
11:55 PM 68.0 °F - N/A% 30.01 in 10.0 mi NE 3.5 mph - N/A   Scattered Clouds